星链-32663 (STARLINK-32663)

导读 | 豆包AI

STARLINK-32663是美国SpaceX公司星链星座的成员卫星,于2024年12月4日发射。星链星座旨在为全球提供高速宽带互联网服务,该卫星采用平板设计,搭载Ku和Ka波段通信载荷,配备氪工质霍尔推进器,具备自主避撞能力,运行在低地球轨道,设计寿命5-7年,退役后会主动离轨再入大气层烧毁,减少太空垃圾威胁。

基本信息
目录编号:
62197
目录名称:
STARLINK-32663
国际标识:
2024-229F
轨道中心:
EARTH
卫星名称:
星链-32663
卫星全名:
星链-32663 (STARLINK-32663)
卫星状态:
在轨 (已飞行466 天)
发射日期:
2024-12-04 UTC
国别 :
美国 (US)
星等 :
--
轨道信息
数据来源 国际轨道数据
星历时间: 2026-03-15T02:22:44+0800
11小时前
查看轨道信息
半长轴: 6861.124km
偏心率: 0.0001835
轨道倾角: 42.997°
近地点辐角 278.403°
升交点赤经 242.391°
平近点角 81.661°
近地点: 481.727km
远地点: 484.247km
周期: 94.265分钟
每日圈数: 15.276008
详细信息
固有亮度:
5
最大亮度:
2.5
卫星平台:
Starlink V1.0
覆盖范围:
全球
运营商:
太空探索技术公司
运营商所在国:
美国
制造商(研发单位):
太空探索技术公司
制造商所在国:
美国
使用方式:
暂无
卫星简介
Starlink 计划是 SpaceX 推出的全球卫星互联网项目,通过发射低轨道卫星,为全球尤其是偏远地区提供高速、低延迟的互联网服务。自 2019 年起,Starlink 已部署数千颗卫星,旨在缩小全球数字鸿沟,推动互联网普及。该项目还为军事、航空等行业提供通信支持,带来广泛经济效益。
2D轨道图
3D轨道图
轨道高度分析图
轨道倾角分析图
轨道综合分析图
查看轨道综合分析图